TimeCDT,TemperatureF,Dew PointF,Humidity,Sea Level PressureIn,VisibilityMPH,Wind Direction,Wind SpeedMPH,Gust SpeedMPH,PrecipitationIn,Events,Conditions,WindDirDegrees,DateUTC
12:15 AM,32.0,19.4,60,30.26,10.0,WNW,4.6,-,N/A,,Clear,290,2013-03-29 05:15:00
12:35 AM,32.0,19.2,59,30.26,10.0,NW,5.8,-,N/A,,Clear,310,2013-03-29 05:35:00
12:55 AM,31.8,19.8,61,30.26,10.0,NNW,6.9,-,N/A,,Clear,340,2013-03-29 05:55:00
1:15 AM,30.4,19.9,65,30.26,10.0,North,4.6,-,N/A,,Clear,350,2013-03-29 06:15:00
1:55 AM,29.3,20.1,69,30.27,10.0,North,4.6,-,N/A,,Clear,350,2013-03-29 06:55:00
2:15 AM,29.1,19.4,67,30.27,10.0,North,3.5,-,N/A,,Clear,350,2013-03-29 07:15:00
2:35 AM,28.8,19.4,68,30.27,10.0,North,3.5,-,N/A,,Clear,350,2013-03-29 07:35:00
2:55 AM,25.3,18.0,74,30.27,10.0,Calm,Calm,-,N/A,,Clear,0,2013-03-29 07:55:00
3:35 AM,24.8,19.2,79,30.27,10.0,Calm,Calm,-,N/A,,Clear,0,2013-03-29 08:35:00
3:55 AM,24.1,19.2,82,30.27,10.0,Calm,Calm,-,N/A,,Clear,0,2013-03-29 08:55:00
4:15 AM,22.1,19.0,88,30.28,10.0,Calm,Calm,-,N/A,,Clear,0,2013-03-29 09:15:00
4:35 AM,24.1,17.6,76,30.28,10.0,Calm,Calm,-,N/A,,Clear,0,2013-03-29 09:35:00
4:55 AM,27.1,17.1,66,30.28,10.0,NNW,3.5,-,N/A,,Clear,330,2013-03-29 09:55:00
5:15 AM,24.4,16.2,71,30.28,10.0,Calm,Calm,-,N/A,,Clear,0,2013-03-29 10:15:00
5:35 AM,23.5,16.7,75,30.28,10.0,Calm,Calm,-,N/A,,Clear,0,2013-03-29 10:35:00
5:55 AM,22.1,17.4,82,30.29,10.0,Calm,Calm,-,N/A,,Clear,0,2013-03-29 10:55:00
6:15 AM,22.1,17.2,82,30.29,10.0,Calm,Calm,-,N/A,,Clear,0,2013-03-29 11:15:00
6:35 AM,23.5,16.5,75,30.29,10.0,Calm,Calm,-,N/A,,Clear,0,2013-03-29 11:35:00
6:55 AM,25.2,15.6,67,30.29,10.0,NNW,3.5,-,N/A,,Clear,340,2013-03-29 11:55:00
7:15 AM,23.2,16.3,75,30.30,10.0,Calm,Calm,-,N/A,,Clear,0,2013-03-29 12:15:00
7:35 AM,26.2,16.3,66,30.30,10.0,Calm,Calm,-,N/A,,Clear,0,2013-03-29 12:35:00
7:55 AM,27.3,16.5,64,30.30,10.0,Calm,Calm,-,N/A,,Clear,0,2013-03-29 12:55:00
8:15 AM,29.5,17.1,60,30.31,10.0,Calm,Calm,-,N/A,,Clear,0,2013-03-29 13:15:00
8:35 AM,31.1,16.9,56,30.31,10.0,North,4.6,-,N/A,,Clear,350,2013-03-29 13:35:00
8:55 AM,32.0,17.6,55,30.31,10.0,NNW,4.6,-,N/A,,Clear,330,2013-03-29 13:55:00
9:15 AM,33.8,18.5,54,30.31,10.0,NNW,3.5,-,N/A,,Clear,340,2013-03-29 14:15:00
9:35 AM,35.1,18.5,51,30.31,10.0,Calm,Calm,-,N/A,,Clear,0,2013-03-29 14:35:00
9:55 AM,36.0,19.2,51,30.30,10.0,Calm,Calm,-,N/A,,Clear,0,2013-03-29 14:55:00
10:15 AM,37.9,19.0,47,30.31,10.0,Calm,Calm,-,N/A,,Clear,0,2013-03-29 15:15:00
10:35 AM,38.7,19.8,47,30.31,10.0,Calm,Calm,-,N/A,,Clear,0,2013-03-29 15:35:00
10:55 AM,38.8,20.1,47,30.31,10.0,Calm,Calm,-,N/A,,Clear,0,2013-03-29 15:55:00
11:15 AM,40.3,18.9,42,30.31,10.0,NW,3.5,-,N/A,,Clear,320,2013-03-29 16:15:00
11:35 AM,41.2,18.7,40,30.30,10.0,NW,3.5,-,N/A,,Clear,310,2013-03-29 16:35:00
11:55 AM,41.5,17.4,38,30.30,10.0,NNE,3.5,-,N/A,,Clear,20,2013-03-29 16:55:00
12:15 PM,41.7,18.5,39,30.30,10.0,West,3.5,-,N/A,,Clear,260,2013-03-29 17:15:00
12:35 PM,42.4,16.7,35,30.29,10.0,Calm,Calm,-,N/A,,Clear,0,2013-03-29 17:35:00
12:55 PM,42.4,17.8,37,30.29,10.0,West,3.5,-,N/A,,Clear,260,2013-03-29 17:55:00
1:15 PM,43.5,17.2,35,30.28,10.0,SSE,4.6,-,N/A,,Clear,150,2013-03-29 18:15:00
1:35 PM,43.2,18.9,38,30.27,10.0,SSW,3.5,-,N/A,,Clear,200,2013-03-29 18:35:00
1:55 PM,42.6,19.4,39,30.26,10.0,South,8.1,-,N/A,,Clear,170,2013-03-29 18:55:00
2:15 PM,42.8,19.9,40,30.26,10.0,SSE,5.8,-,N/A,,Clear,150,2013-03-29 19:15:00
2:35 PM,42.6,20.7,42,30.26,10.0,SE,9.2,-,N/A,,Clear,130,2013-03-29 19:35:00
2:55 PM,42.6,19.4,39,30.25,10.0,South,10.4,-,N/A,,Clear,170,2013-03-29 19:55:00
3:15 PM,42.8,19.2,39,30.25,10.0,SSE,6.9,-,N/A,,Clear,150,2013-03-29 20:15:00
3:35 PM,42.6,19.2,39,30.24,10.0,SSE,8.1,-,N/A,,Clear,150,2013-03-29 20:35:00
3:55 PM,43.2,18.0,36,30.23,10.0,SSE,6.9,-,N/A,,Clear,160,2013-03-29 20:55:00
4:15 PM,42.4,20.3,41,30.23,10.0,SSE,6.9,-,N/A,,Clear,150,2013-03-29 21:15:00
4:35 PM,43.3,17.8,36,30.22,10.0,South,8.1,-,N/A,,Clear,170,2013-03-29 21:35:00
4:55 PM,43.2,18.1,37,30.22,10.0,SSE,6.9,-,N/A,,Clear,150,2013-03-29 21:55:00
5:15 PM,43.3,17.4,35,30.22,10.0,South,9.2,-,N/A,,Clear,170,2013-03-29 22:15:00
5:35 PM,43.0,17.1,35,30.22,10.0,SSE,6.9,-,N/A,,Clear,160,2013-03-29 22:35:00
5:55 PM,43.2,17.1,35,30.22,10.0,South,5.8,-,N/A,,Clear,170,2013-03-29 22:55:00
6:15 PM,43.0,17.1,35,30.22,10.0,South,4.6,-,N/A,,Clear,180,2013-03-29 23:15:00
6:35 PM,42.4,17.1,36,30.21,10.0,SSE,4.6,-,N/A,,Clear,160,2013-03-29 23:35:00
6:55 PM,41.7,16.7,36,30.21,10.0,South,4.6,-,N/A,,Clear,180,2013-03-29 23:55:00
7:15 PM,40.3,17.4,40,30.21,10.0,South,3.5,-,N/A,,Clear,180,2013-03-30 00:15:00
7:35 PM,39.6,19.4,44,30.20,10.0,South,5.8,-,N/A,,Clear,170,2013-03-30 00:35:00
7:55 PM,38.3,20.1,48,30.20,10.0,South,4.6,-,N/A,,Clear,180,2013-03-30 00:55:00
8:15 PM,38.1,20.3,49,30.20,10.0,South,5.8,-,N/A,,Clear,170,2013-03-30 01:15:00
8:35 PM,37.6,21.2,52,30.21,10.0,South,4.6,-,N/A,,Clear,180,2013-03-30 01:35:00
8:55 PM,37.0,21.9,54,30.21,10.0,South,3.5,-,N/A,,Clear,170,2013-03-30 01:55:00
9:15 PM,36.5,22.1,56,30.21,10.0,SSW,3.5,-,N/A,,Clear,200,2013-03-30 02:15:00
9:35 PM,36.0,22.1,57,30.21,10.0,Calm,Calm,-,N/A,,Clear,0,2013-03-30 02:35:00
9:55 PM,31.6,22.6,69,30.21,10.0,Calm,Calm,-,N/A,,Clear,0,2013-03-30 02:55:00
10:15 PM,29.7,23.0,76,30.20,10.0,Calm,Calm,-,N/A,,Clear,0,2013-03-30 03:15:00
10:35 PM,29.8,22.8,75,30.20,10.0,Calm,Calm,-,N/A,,Clear,0,2013-03-30 03:35:00
10:55 PM,27.9,22.3,80,30.20,10.0,Calm,Calm,-,N/A,,Clear,0,2013-03-30 03:55:00
11:15 PM,29.1,22.6,77,30.19,10.0,Calm,Calm,-,N/A,,Clear,0,2013-03-30 04:15:00
11:35 PM,28.4,22.1,77,30.19,10.0,SW,3.5,-,N/A,,Clear,220,2013-03-30 04:35:00
11:55 PM,31.3,21.7,68,30.19,10.0,SW,3.5,-,N/A,,Clear,220,2013-03-30 04:55:00